Charleston, SC

10:42 AM EDT on May 25, 2017 (GMT -0400)
Charleston Air Force Base-International

Weather History for KCHS - January, 2013

Change the Weather History Date:

Sunday, January 6, 2013

  Actual Average Record
Temperature  
Mean Temperature 49 °F 48 °F  
Max Temperature 54 °F 59 °F 78 °F (1955)
Min Temperature 44 °F 37 °F 17 °F (1999)
Degree Days  
Heating Degree Days 16 17  
Month to date heating degree days 102  
Since 1 July heating degree days 840  
Cooling Degree Days 0 0  
Month to date cooling degree days 0  
Year to date cooling degree days 0  
Moisture  
Dew Point 43 °F    
Average Humidity 77    
Maximum Humidity 93    
Minimum Humidity 57    
Precipitation  
Precipitation 0.00 in 0.11 in 1.24 in (1970)
Month to date precipitation 0.68  
Year to date precipitation 0.68  
Sea Level Pressure  
Sea Level Pressure 30.19 in    
Wind  
Wind Speed 2 mph (West)    
Max Wind Speed 9 mph    
Max Gust Speed -    
Visibility 10 miles    
Events Rain    
T = Trace of Precipitation, MM = Missing Value Source: NWS Daily Summary

Daily Weather History Graph

Daily Weather History Graph

Search for Another Location

Airport or City:

Trip Planner

Search our weather history database for the weather conditions in past years. The results will help you decide how hot, cold, wet, or windy it might be!

Date:

Astronomy

Jan. 06, 2013 Rise Set
Actual Time 7:23 AM EST 5:28 PM EST
Civil Twilight 6:56 AM EST 5:56 PM EST
Nautical Twilight 6:25 AM EST 6:26 PM EST
Astronomical Twilight 5:55 AM EST 6:56 PM EST
Moon 1:43 AM EST (1/6) 12:49 PM EST (1/6)
Length of Visible Light 10h 59m
Length of Day
10h 05m
Waning Crescent, 33% of the Moon is Illuminated
Jan 6
Waning Crescent
Jan 11
New
Jan 18
First Quarter
Jan 26
Full
Feb 3
Last Quarter

Hourly Weather History & Observations

Time (EST) Temp. Windchill Dew Point Humidity Pressure Visibility Wind Dir Wind Speed Gust Speed Precip Events Conditions
12:56 AM 46.0 °F - 42.1 °F 86% 30.27 in 10.0 mi Calm Calm - 0.00 in Rain Light Rain
1:56 AM 46.0 °F 44.8 °F 43.0 °F 89% 30.27 in 10.0 mi North 3.5 mph - 0.00 in   Mostly Cloudy
2:56 AM 46.9 °F - 42.1 °F 83% 30.25 in 10.0 mi Calm Calm - N/A   Mostly Cloudy
3:56 AM 48.0 °F - 43.0 °F 83% 30.23 in 10.0 mi Calm Calm - 0.00 in Rain Light Rain
4:56 AM 46.9 °F - 44.1 °F 90% 30.20 in 10.0 mi Calm Calm - 0.00 in   Mostly Cloudy
5:56 AM 46.9 °F - 44.1 °F 90% 30.22 in 10.0 mi Calm Calm - N/A   Overcast
6:56 AM 46.9 °F - 45.0 °F 93% 30.22 in 10.0 mi NNW 4.6 mph - N/A   Mostly Cloudy
7:56 AM 48.0 °F - 44.1 °F 86% 30.23 in 10.0 mi Calm Calm - N/A   Overcast
8:56 AM 48.9 °F - 44.1 °F 83% 30.23 in 10.0 mi NNW 3.5 mph - N/A   Overcast
9:56 AM 50.0 °F - 44.1 °F 80% 30.25 in 10.0 mi Calm Calm - N/A   Overcast
10:56 AM 52.0 °F - 44.1 °F 74% 30.24 in 10.0 mi WNW 3.5 mph - N/A   Overcast
11:56 AM 54.0 °F - 44.1 °F 69% 30.20 in 10.0 mi West 3.5 mph - N/A   Overcast
12:47 PM 53.6 °F - 41.0 °F 62% 30.18 in 10.0 mi NW 4.6 mph - N/A   Overcast
12:56 PM 53.1 °F - 42.1 °F 66% 30.17 in 10.0 mi NW 3.5 mph - N/A   Overcast
1:56 PM 54.0 °F - 39.0 °F 57% 30.15 in 10.0 mi NNW 3.5 mph - N/A   Overcast
2:56 PM 52.0 °F - 39.0 °F 61% 30.15 in 7.0 mi WNW 9.2 mph - 0.00 in   Overcast
3:21 PM 50.0 °F - 42.8 °F 76% 30.15 in 10.0 mi WSW 8.1 mph - 0.00 in Rain Light Rain
3:56 PM 50.0 °F - 43.0 °F 77% 30.14 in 10.0 mi WSW 4.6 mph - 0.00 in Rain Light Rain
4:17 PM 50.0 °F - 44.6 °F 82% 30.14 in 10.0 mi SSW 3.5 mph - 0.00 in   Overcast
4:56 PM 50.0 °F - 43.0 °F 77% 30.13 in 10.0 mi SSW 4.6 mph - 0.00 in   Overcast
5:56 PM 50.0 °F - 43.0 °F 77% 30.13 in 10.0 mi SW 3.5 mph - N/A   Overcast
6:56 PM 50.0 °F - 43.0 °F 77% 30.14 in 10.0 mi West 3.5 mph - N/A   Mostly Cloudy
7:56 PM 50.0 °F - 44.1 °F 80% 30.13 in 10.0 mi SW 5.8 mph - 0.00 in Rain Light Rain
8:56 PM 50.0 °F - 44.1 °F 80% 30.15 in 10.0 mi West 5.8 mph - 0.00 in   Overcast
9:56 PM 51.1 °F - 43.0 °F 74% 30.16 in 10.0 mi West 5.8 mph - N/A   Overcast
10:56 PM 50.0 °F - 42.1 °F 74% 30.18 in 10.0 mi West 5.8 mph - N/A   Mostly Cloudy
11:56 PM 48.0 °F - 42.1 °F 80% 30.19 in 10.0 mi WNW 6.9 mph - N/A   Scattered Clouds